EW8349 Weather Reports


Display with metric or nautical units.
time (UTC)temp
F
wind
direction
speed
MPH
gust
MPH
rain 1hr
in
rain 24hr
in
rain mn
in
humidity
%
barometer
mb
20190921211328 90 96 6.0 11.0 0.00 0.00 0.00 59 1000.6
20190921210827 89 121 6.0 11.0 0.00 0.00 0.00 60 1000.6
20190921210326 89 146 6.0 12.0 0.00 0.00 0.00 61 1000.7
20190921205824 88 109 5.0 12.0 0.00 0.00 0.00 62 1000.6
20190921205324 88 133 6.0 13.0 0.00 0.00 0.00 61 1000.8
20190921204825 88 111 6.0 13.0 0.00 0.00 0.00 63 1000.8
20190921204323 88 109 5.0 11.0 0.00 0.00 0.00 61 1000.9
20190921203823 88 118 4.0 10.0 0.00 0.00 0.00 62 1000.9
20190921203324 88 113 5.0 10.0 0.00 0.00 0.00 62 1001.1
20190921202819 89 126 6.0 9.0 0.00 0.00 0.00 62 1001.0
20190921202320 89 136 6.0 14.0 0.00 0.00 0.00 62 1001.2
20190921201820 89 125 6.0 14.0 0.00 0.00 0.00 61 1001.2
20190921201320 89 115 4.0 10.0 0.00 0.00 0.00 61 1001.3
20190921200820 89 90 4.0 10.0 0.00 0.00 0.00 62 1001.4
20190921200319 89 71 4.0 9.0 0.00 0.00 0.00 62 1001.4
20190921195820 89 163 5.0 11.0 0.00 0.00 0.00 62 1001.5
20190921195322 89 59 5.0 15.0 0.00 0.00 0.00 61 1001.5
20190921194818 89 141 5.0 15.0 0.00 0.00 0.00 61 1001.7
20190921194318 89 113 5.0 12.0 0.00 0.00 0.00 60 1001.7
20190921193818 88 133 5.0 12.0 0.00 0.00 0.00 64 1001.8
20190921193318 89 132 5.0 12.0 0.00 0.00 0.00 61 1001.8
20190921192818 88 134 5.0 10.0 0.00 0.00 0.00 62 1001.8
20190921192318 89 105 5.0 10.0 0.00 0.00 0.00 62 1001.9
20190921191819 89 120 6.0 10.0 0.00 0.00 0.00 61 1001.9
20190921191320 89 154 6.0 12.0 0.00 0.00 0.00 62 1002.1
20190921190818 89 140 5.0 12.0 0.00 0.00 0.00 61 1002.2
20190921190317 89 135 5.0 9.0 0.00 0.00 0.00 62 1002.3
20190921185817 90 114 5.0 9.0 0.00 0.00 0.00 61 1002.2
20190921185316 89 185 6.0 11.0 0.00 0.00 0.00 63 1002.4
20190921184816 89 155 5.0 11.0 0.00 0.00 0.00 64 1002.5
20190921184316 89 114 6.0 11.0 0.00 0.00 0.00 64 1002.5
20190921183816 88 100 7.0 14.0 0.00 0.00 0.00 65 1002.6
20190921183318 88 196 6.0 14.0 0.00 0.00 0.00 66 1002.6
20190921182816 87 137 5.0 13.0 0.00 0.00 0.00 65 1002.6
20190921182316 88 128 4.0 9.0 0.00 0.00 0.00 65 1002.7
20190921181816 88 128 4.0 9.0 0.00 0.00 0.00 64 1002.8
20190921181315 89 161 5.0 11.0 0.00 0.00 0.00 63 1002.8
20190921180814 89 146 6.0 12.0 0.00 0.00 0.00 63 1002.9
20190921180314 89 191 6.0 13.0 0.00 0.00 0.00 62 1002.9
20190921175814 89 169 7.0 13.0 0.00 0.00 0.00 64 1003.1
20190921175315 89 185 7.0 12.0 0.00 0.00 0.00 65 1003.2
20190921174814 88 213 7.0 12.0 0.00 0.00 0.00 68 1003.3
20190921174314 88 137 7.0 12.0 0.00 0.00 0.00 66 1003.3
20190921173814 88 119 5.0 12.0 0.00 0.00 0.00 67 1003.4
20190921173313 87 130 5.0 10.0 0.00 0.00 0.00 69 1003.4
20190921172816 87 121 6.0 10.0 0.00 0.00 0.00 68 1003.5
20190921172315 87 151 6.0 11.0 0.00 0.00 0.00 69 1003.5
20190921171812 87 112 6.0 11.0 0.00 0.00 0.00 70 1003.6
20190921171310 86 181 6.0 11.0 0.00 0.00 0.00 70 1003.5
20190921170811 86 158 7.0 15.0 0.00 0.00 0.00 69 1003.6
20190921170311 86 175 6.0 15.0 0.00 0.00 0.00 71 1003.7
20190921165811 86 207 5.0 11.0 0.00 0.00 0.00 71 1003.7
20190921165309 86 131 7.0 12.0 0.00 0.00 0.00 70 1003.8
20190921164807 85 127 6.0 12.0 0.00 0.00 0.00 73 1003.8
20190921164308 85 134 6.0 13.0 0.00 0.00 0.00 73 1003.8
20190921163807 85 202 6.0 13.0 0.00 0.00 0.00 75 1003.8
20190921163308 85 141 5.0 12.0 0.00 0.00 0.00 73 1003.8
20190921162808 85 76 6.0 12.0 0.00 0.00 0.00 75 1003.8
20190921162308 85 184 6.0 12.0 0.00 0.00 0.00 77 1003.9
20190921161807 83 162 5.0 10.0 0.00 0.00 0.00 80 1003.9
20190921161309 83 136 6.0 10.0 0.00 0.00 0.00 80 1004.0
20190921160808 83 125 5.0 12.0 0.00 0.00 0.00 79 1004.0
20190921160307 83 127 6.0 12.0 0.00 0.00 0.00 79 1004.0
20190921155807 83 156 6.0 11.0 0.00 0.00 0.00 80 1004.0
20190921155309 82 162 5.0 10.0 0.00 0.00 0.00 81 1004.0
20190921154808 82 176 6.0 10.0 0.00 0.00 0.00 82 1004.1
20190921154308 82 114 5.0 10.0 0.00 0.00 0.00 83 1004.0
20190921153806 82 148 5.0 11.0 0.00 0.00 0.00 83 1004.0
20190921153306 82 117 5.0 11.0 0.00 0.00 0.00 83 1004.1
20190921152806 81 162 5.0 10.0 0.00 0.00 0.00 85 1004.0
20190921152304 81 144 4.0 10.0 0.00 0.00 0.00 86 1004.1
20190921151804 80 132 4.0 9.0 0.00 0.00 0.00 86 1004.1
20190921151303 79 123 4.0 9.0 0.00 0.00 0.00 88 1004.1
20190921150802 79 152 5.0 11.0 0.00 0.00 0.00 88 1004.1
20190921150303 79 146 5.0 11.0 0.00 0.00 0.00 89 1004.1
20190921145803 78 136 4.0 10.0 0.00 0.00 0.00 89 1004.1
20190921145301 78 167 3.0 9.0 0.00 0.00 0.00 90 1004.1
20190921144759 78 150 3.0 7.0 0.00 0.00 0.00 90 1004.1
20190921144300 77 139 3.0 7.0 0.00 0.00 0.00 91 1004.2
20190921143800 77 130 2.0 6.0 0.00 0.00 0.00 91 1004.1
20190921143300 77 128 3.0 7.0 0.00 0.00 0.00 91 1004.1
20190921142757 77 130 3.0 7.0 0.00 0.00 0.00 92 1004.1
20190921142257 77 159 1.0 6.0 0.00 0.00 0.00 92 1004.1
20190921141758 76 122 1.0 4.0 0.00 0.00 0.00 93 1004.1
20190921141259 76 128 1.0 4.0 0.00 0.00 0.00 93 1004.1
20190921140759 76 119 0.0 3.0 0.00 0.00 0.00 93 1004.0
20190921140300 76 119 0.0 3.0 0.00 0.00 0.00 93 1004.0
20190921135759 76 115 1.0 4.0 0.00 0.00 0.00 93 1004.0
20190921135300 76 115 1.0 4.0 0.00 0.00 0.00 93 1004.0
20190921134800 76 138 2.0 6.0 0.00 0.00 0.00 93 1003.9
20190921134259 76 138 2.0 6.0 0.00 0.00 0.00 94 1003.9
20190921133758 76 126 2.0 6.0 0.00 0.00 0.00 94 1003.8
20190921133258 76 128 2.0 6.0 0.00 0.00 0.00 94 1003.7
20190921132756 76 130 1.0 5.0 0.00 0.00 0.00 95 1003.7
20190921132255 76 155 1.0 5.0 0.00 0.00 0.00 95 1003.7
20190921131754 76 132 0.0 4.0 0.00 0.00 0.00 95 1003.6
20190921131253 76 132 0.0 0.0 0.00 0.00 0.00 95 1003.6
20190921130753 75 132 0.0 2.0 0.00 0.00 0.00 95 1003.6
20190921130255 75 132 0.0 2.0 0.00 0.00 0.00 95 1003.5
20190921125754 75 132 0.0 1.0 0.00 0.00 0.00 95 1003.6
20190921125254 75 132 0.0 1.0 0.00 0.00 0.00 95 1003.6
20190921124752 75 132 0.0 1.0 0.00 0.00 0.00 95 1003.5
20190921124252 75 132 1.0 3.0 0.00 0.00 0.00 95 1003.5
20190921123752 75 132 2.0 3.0 0.00 0.00 0.00 95 1003.4
20190921123250 75 137 3.0 4.0 0.00 0.00 0.00 95 1003.4
20190921122750 75 138 3.0 5.0 0.00 0.00 0.00 95 1003.3
20190921122253 75 165 3.0 7.0 0.00 0.00 0.00 95 1003.2
20190921121750 75 130 3.0 7.0 0.00 0.00 0.00 95 1003.2
20190921121250 75 144 3.0 7.0 0.00 0.00 0.00 95 1003.1
20190921120747 75 175 2.0 7.0 0.00 0.00 0.00 95 1003.0
20190921120247 75 140 1.0 2.0 0.00 0.00 0.00 95 1003.0
20190921115747 75 141 1.0 3.0 0.00 0.00 0.00 95 1003.1
20190921115247 75 141 2.0 5.0 0.00 0.00 0.00 95 1003.0
20190921114754 75 140 2.0 7.0 0.00 0.00 0.00 95 1002.8
20190921114247 75 130 1.0 7.0 0.00 0.00 0.00 95 1002.7
20190921113749 75 147 1.0 3.0 0.00 0.00 0.00 96 1002.7
20190921113246 75 147 2.0 7.0 0.00 0.00 0.00 96 1002.7
20190921112746 75 148 2.0 7.0 0.00 0.00 0.00 96 1002.7
20190921112246 75 134 1.0 5.0 0.00 0.00 0.00 96 1002.7
20190921111746 75 86 0.0 2.0 0.00 0.00 0.00 96 1002.7
20190921111245 75 86 1.0 4.0 0.00 0.00 0.00 96 1002.7
20190921110746 75 70 1.0 6.0 0.00 0.00 0.00 95 1002.6
20190921110245 75 94 1.0 6.0 0.00 0.00 0.00 95 1002.6
20190921105747 75 104 0.0 4.0 0.00 0.00 0.00 95 1002.5
20190921105246 75 105 0.0 4.0 0.00 0.00 0.00 95 1002.4
20190921104746 75 94 0.0 0.0 0.00 0.00 0.00 95 1002.4
20190921104245 75 94 0.0 0.0 0.00 0.00 0.00 95 1002.3
20190921103745 75 94 0.0 0.0 0.00 0.00 0.00 95 1002.2
20190921103245 75 94 0.0 0.0 0.00 0.00 0.00 95 1002.1
20190921102746 75 94 0.0 0.0 0.00 0.00 0.00 94 1002.1
20190921102246 75 94 0.0 0.0 0.00 0.00 0.00 94 1002.1
20190921101746 75 94 0.0 1.0 0.00 0.00 0.00 94 1002.0
20190921101246 75 94 0.0 1.0 0.00 0.00 0.00 94 1002.0
20190921100747 75 94 0.0 1.0 0.00 0.00 0.00 94 1002.0
20190921100245 75 94 0.0 1.0 0.00 0.00 0.00 94 1001.9
20190921095746 75 94 0.0 1.0 0.00 0.00 0.00 94 1001.9
20190921095245 75 94 0.0 0.0 0.00 0.00 0.00 94 1001.9
20190921094745 75 94 0.0 3.0 0.00 0.00 0.00 93 1001.9
20190921094245 75 94 0.0 3.0 0.00 0.00 0.00 93 1001.9
20190921093746 75 99 0.0 2.0 0.00 0.00 0.00 93 1001.8
20190921093245 75 107 0.0 6.0 0.00 0.00 0.00 93 1001.7
20190921092746 75 107 1.0 6.0 0.00 0.00 0.00 93 1001.7
20190921092246 75 138 2.0 7.0 0.00 0.00 0.00 93 1001.7
20190921091745 75 161 3.0 8.0 0.00 0.00 0.00 93 1001.6
20190921091245 75 136 3.0 8.0 0.00 0.00 0.00 93 1001.6
20190921090746 75 207 3.0 8.0 0.00 0.00 0.00 93 1001.6
20190921090246 75 158 3.0 8.0 0.00 0.00 0.00 93 1001.5
20190921085745 75 123 2.0 8.0 0.00 0.00 0.00 93 1001.6
20190921085245 75 132 2.0 9.0 0.00 0.00 0.00 93 1001.5
20190921084743 75 106 3.0 10.0 0.00 0.00 0.00 93 1001.5
20190921084243 75 109 4.0 10.0 0.00 0.00 0.00 93 1001.5
20190921083741 76 136 4.0 9.0 0.00 0.00 0.00 93 1001.4
20190921083241 76 136 4.0 9.0 0.00 0.00 0.00 93 1001.5
20190921082739 76 136 4.0 9.0 0.00 0.00 0.00 94 1001.5
20190921082241 76 148 4.0 9.0 0.00 0.00 0.00 94 1001.5
20190921081739 76 141 3.0 7.0 0.00 0.00 0.00 94 1001.5
20190921081240 76 143 3.0 10.0 0.00 0.00 0.00 94 1001.6
20190921080737 76 150 3.0 10.0 0.00 0.00 0.00 94 1001.6
20190921080238 76 169 3.0 7.0 0.00 0.00 0.00 94 1001.6
20190921075738 76 141 4.0 9.0 0.00 0.00 0.00 94 1001.6
20190921075236 76 150 4.0 9.0 0.00 0.00 0.00 94 1001.6
20190921074739 76 143 4.0 9.0 0.00 0.00 0.00 94 1001.6
20190921074236 76 178 4.0 9.0 0.00 0.00 0.00 94 1001.7
20190921073735 76 124 4.0 9.0 0.00 0.00 0.00 94 1001.7
20190921073236 76 113 4.0 9.0 0.00 0.00 0.00 94 1001.8
20190921072737 76 134 4.0 8.0 0.00 0.00 0.00 95 1001.9
20190921072235 76 148 4.0 11.0 0.00 0.00 0.00 95 1001.9
20190921071736 76 128 5.0 11.0 0.00 0.00 0.00 95 1001.9
20190921071235 76 145 4.0 9.0 0.00 0.00 0.00 95 1001.9
20190921070737 76 161 4.0 10.0 0.00 0.00 0.00 95 1002.0
20190921070235 75 136 4.0 10.0 0.00 0.00 0.00 95 1002.0
20190921065735 75 135 4.0 9.0 0.00 0.00 0.00 96 1002.1
20190921065235 75 179 3.0 10.0 0.00 0.00 0.00 96 1002.2
20190921064735 75 144 3.0 10.0 0.00 0.00 0.00 96 1002.1
20190921064235 75 146 2.0 6.0 0.00 0.00 0.00 96 1002.1
20190921063735 75 121 2.0 6.0 0.00 0.00 0.00 96 1002.1
20190921063236 75 117 1.0 4.0 0.00 0.00 0.00 95 1002.1
20190921062735 75 130 1.0 3.0 0.00 0.00 0.00 95 1002.1
20190921062235 75 130 0.0 3.0 0.00 0.00 0.00 95 1002.2
20190921061733 75 130 1.0 4.0 0.00 0.00 0.00 95 1002.1
20190921061233 75 130 1.0 4.0 0.00 0.00 0.00 95 1002.1
20190921060733 75 130 0.0 3.0 0.00 0.00 0.00 95 1002.1
20190921060233 74 130 0.0 3.0 0.00 0.00 0.00 95 1002.1
20190921055734 74 130 0.0 0.0 0.00 0.00 0.00 94 1002.1
20190921055234 74 130 0.0 0.0 0.00 0.00 0.00 94 1002.1
20190921054734 75 130 0.0 0.0 0.00 0.00 0.00 94 1002.3
20190921054233 75 130 0.0 0.0 0.00 0.00 0.00 94 1002.3
20190921053733 75 130 0.0 0.0 0.00 0.00 0.00 94 1002.3
20190921053235 75 130 0.0 0.0 0.00 0.00 0.00 94 1002.3
20190921052731 75 130 0.0 1.0 0.00 0.00 0.00 94 1002.2
20190921052231 75 130 0.0 1.0 0.00 0.00 0.00 93 1002.3
20190921051731 75 130 0.0 1.0 0.00 0.00 0.00 93 1002.3
20190921051233 75 130 0.0 0.0 0.00 0.00 0.00 93 1002.4
20190921050731 75 130 0.0 2.0 0.00 0.00 0.00 93 1002.4
20190921050230 75 130 0.0 2.0 0.00 0.00 0.00 93 1002.4
20190921045731 75 130 0.0 0.0 0.00 0.00 0.00 93 1002.4
20190921045230 75 130 0.0 0.0 0.00 0.00 0.00 92 1002.4
20190921044731 75 130 0.0 0.0 0.00 0.00 0.00 92 1002.5
20190921044230 75 130 0.0 0.0 0.00 0.00 0.00 92 1002.4
20190921043729 75 130 0.0 1.0 0.00 0.00 0.00 92 1002.4
20190921043231 75 130 0.0 2.0 0.00 0.00 0.00 92 1002.5
20190921042729 76 130 0.0 4.0 0.00 0.00 0.00 92 1002.5
20190921042229 76 130 0.0 4.0 0.00 0.00 0.00 92 1002.4
20190921041729 76 130 0.0 4.0 0.00 0.00 0.00 92 1002.4
20190921041229 76 130 1.0 4.0 0.00 0.00 0.00 92 1002.4
20190921040729 76 131 1.0 3.0 0.00 0.00 0.00 91 1002.3
20190921040231 76 131 1.0 3.0 0.00 0.00 0.00 91 1002.2
20190921035729 76 126 0.0 0.0 0.00 0.00 0.00 91 1002.1
20190921035229 76 127 0.0 0.0 0.00 0.00 0.00 90 1002.1
20190921034727 76 128 0.0 0.0 0.00 0.00 0.00 90 1001.9
20190921034227 76 146 0.0 3.0 0.00 0.00 0.00 90 1001.9
20190921033727 76 146 1.0 4.0 0.00 0.00 0.00 89 1001.9
20190921033227 76 146 0.0 4.0 0.00 0.00 0.00 89 1001.9
20190921032727 76 146 0.0 2.0 0.00 0.00 0.00 89 1001.9
20190921032227 76 146 0.0 3.0 0.00 0.00 0.00 88 1001.9
20190921031727 77 146 1.0 4.0 0.00 0.00 0.00 88 1002.0
20190921031229 77 146 1.0 4.0 0.00 0.00 0.00 87 1002.0
20190921030725 77 146 0.0 2.0 0.00 0.00 0.00 87 1001.9
20190921030225 77 146 1.0 3.0 0.00 0.00 0.00 87 1001.9
20190921025723 77 146 1.0 4.0 0.00 0.00 0.00 87 1001.9
20190921025221 77 146 1.0 5.0 0.00 0.00 0.00 86 1001.8
20190921024720 77 146 1.0 5.0 0.00 0.00 0.00 86 1001.7
20190921024221 77 38 2.0 4.0 0.00 0.00 0.00 86 1001.7
20190921023721 77 127 2.0 6.0 0.00 0.00 0.00 85 1001.6
20190921023219 78 126 2.0 6.0 0.00 0.01 0.00 85 1001.5
20190921022720 78 130 2.0 6.0 0.00 0.01 0.00 85 1001.4
20190921022219 78 98 2.0 7.0 0.00 0.02 0.00 84 1001.4
20190921021719 78 101 2.0 7.0 0.00 0.03 0.00 84 1001.3
20190921021219 78 147 1.0 7.0 0.00 0.03 0.00 84 1001.3
20190921020721 78 121 1.0 5.0 0.00 0.04 0.00 84 1001.3
20190921020218 78 116 2.0 8.0 0.00 0.04 0.00 85 1001.2
20190921015717 79 111 1.0 8.0 0.00 0.05 0.00 84 1001.1
20190921015216 79 98 1.0 4.0 0.00 0.06 0.00 84 1001.2
20190921014719 79 130 2.0 4.0 0.00 0.06 0.00 84 1001.1
20190921014217 79 134 1.0 5.0 0.00 0.07 0.00 83 1001.0
20190921013716 79 134 2.0 7.0 0.00 0.07 0.00 83 1000.9
20190921013217 79 123 2.0 7.0 0.00 0.07 0.00 83 1000.9
20190921012714 79 117 3.0 7.0 0.00 0.07 0.00 82 1000.9
20190921012215 80 131 3.0 7.0 0.00 0.08 0.00 82 1000.7
20190921011715 80 121 2.0 6.0 0.00 0.08 0.00 82 1000.6
20190921011215 80 119 2.0 4.0 0.00 0.09 0.00 82 1000.6
20190921010713 80 122 2.0 5.0 0.00 0.12 0.00 81 1000.6
20190921010213 80 128 2.0 7.0 0.00 0.16 0.00 81 1000.6
20190921005714 80 130 3.0 7.0 0.00 0.21 0.00 81 1000.7
20190921005213 80 134 3.0 6.0 0.00 0.25 0.00 80 1000.5
20190921004713 81 119 2.0 7.0 0.00 0.28 0.00 80 1000.4
20190921004213 81 121 2.0 7.0 0.00 0.33 0.00 80 1000.3
20190921003713 81 130 2.0 8.0 0.00 0.35 0.00 80 1000.1
20190921003212 81 145 3.0 8.0 0.00 0.38 0.00 80 1000.1
20190921002713 81 136 3.0 9.0 0.00 0.39 0.00 79 1000.1
20190921002214 82 129 3.0 9.0 0.00 0.39 0.00 79 1000.0
20190921001713 82 132 5.0 12.0 0.00 0.39 0.00 79 1000.0
20190921001213 82 165 5.0 12.0 0.00 0.40 0.00 78 1000.1
20190921000713 82 128 6.0 11.0 0.00 0.40 0.00 78 1000.0
20190921000213 82 128 5.0 11.0 0.00 0.41 0.00 79 1000.0
20190920235712 82 125 5.0 12.0 0.00 0.41 0.00 79 1000.0
20190920235214 82 118 5.0 12.0 0.00 0.42 0.00 79 1000.0
20190920234713 83 139 5.0 10.0 0.00 0.43 0.00 79 999.9
20190920234213 83 136 5.0 10.0 0.00 0.44 0.00 78 1000.0
20190920233713 83 142 4.0 9.0 0.00 0.44 0.00 78 1000.0
20190920233212 83 123 5.0 14.0 0.00 0.44 0.00 78 999.9
20190920232713 83 130 6.0 14.0 0.00 0.45 0.00 78 999.9
20190920232213 83 157 6.0 13.0 0.00 0.45 0.00 78 1000.0
20190920231713 83 161 7.0 14.0 0.00 0.45 0.00 78 999.9
20190920231214 83 152 7.0 14.0 0.00 0.46 0.00 78 999.9
20190920230714 83 184 6.0 11.0 0.00 0.47 0.00 78 999.9
20190920230214 83 190 6.0 12.0 0.00 0.47 0.00 78 999.9
20190920225712 83 197 6.0 12.0 0.00 0.47 0.00 78 999.8
20190920225212 83 169 7.0 12.0 0.00 0.48 0.00 78 999.8
20190920224713 83 147 7.0 14.0 0.00 0.48 0.00 78 999.7
20190920224213 83 172 7.0 14.0 0.00 0.48 0.00 77 999.7
20190920223712 83 173 6.0 13.0 0.00 0.48 0.00 78 999.7
20190920223213 83 141 6.0 11.0 0.00 0.49 0.00 79 999.6
20190920222712 83 139 7.0 16.0 0.00 0.49 0.00 79 999.5
20190920222212 83 158 7.0 16.0 0.00 0.53 0.00 79 999.5
20190920221712 82 131 7.0 13.0 0.00 0.56 0.00 80 999.5
20190920221212 82 154 6.0 14.0 0.00 0.57 0.00 81 999.5
20190920220712 81 194 5.0 14.0 0.00 0.64 0.00 82 999.3
20190920220213 81 210 4.0 9.0 0.00 0.70 0.00 82 999.4
20190920215713 81 165 5.0 10.0 0.00 0.74 0.00 82 999.6
20190920215213 80 173 5.0 10.0 0.00 0.82 0.00 82 999.5
20190920214712 80 180 4.0 9.0 0.00 0.96 0.00 82 999.4
20190920214212 81 208 3.0 8.0 0.00 1.03 0.00 81 999.5
20190920213713 81 174 4.0 9.0 0.00 1.05 0.00 81 999.5
20190920213210 81 153 5.0 9.0 0.00 1.05 0.00 80 999.6
20190920212711 81 165 5.0 10.0 0.00 1.05 0.00 80 999.5
20190920212211 81 144 5.0 10.0 0.00 1.05 0.00 81 999.6
20190920211710 81 157 6.0 11.0 0.00 1.05 0.00 80 999.6